Погода в Магнетитах

Россия / Мурманская область     68°41′09″N   33°07′38″E
темп.,
°C
ветер,
м/с
пор.,
м/с
влажн.,
%
обл.,
%
осадки,
мм/ч
давл.,
гПа
погр.,
м
24 октября, вс
вс2400:00−3з4128465 0.0 1009489
03:00−4з4128673 0.0 1010425
06:00−4з4118752 0.0 1010362
09:00−4з512875 0.0 1010432
12:00−2з512775 0.0 1011579
15:00−2з512785 0.0 1012534
18:00−3зсз4118687 0.3 1013370
21:00−6зюз119657 0.3 101416
25 октября, пн
пн2500:00−6зюз119853 0.0 101516
03:00−7юз119865 0.0 101611
06:00−8ю119870 0.0 101512
09:00−8юв119863 0.0 101514
12:00−4вюв118594 0.0 101458
15:00−5в1189100 0.0 101324
18:00−6в1193100 0.0 101325
21:00−6в1193100 0.0 101223
26 октября, вт
вт2600:00−6в1193100 0.0 101220
03:00−6в1191100 0.0 101133
06:00−5в1286100 0.0 101187
09:00−4вюв31077100 0.1 1010482
12:00−4вюв51292100 0.4 1010577
15:00−3вюв51188100 1.1 1009643
18:00−3вюв61285100 0.0 1009623
21:00−3вюв61285100 0.1 1009692
27 октября, ср
ср2700:00−3вюв51278100 0.0 1009693
03:00−4в41175100 0.0 1009754
06:00−4в41180100 0.0 1010521
09:00−3всв2989100 0.1 1010389
12:00−3св1677100 0.0 1011292
15:00−4св1181100 0.0 101111
18:00−6всв119350 0.0 101210
21:00−7всв119560 0.0 101413
28 октября, чт
чт2800:00−7всв119747 0.0 101610
03:00−8с019866 0.0 101710
06:00−8вюв119749 0.0 101910
09:00−8юв009643 0.0 102010
12:00−5ююв118623 0.0 102140
15:00−6юв11935 0.0 102218
18:00−8юв1193100 0.0 102227
21:00−6ююв2685100 0.0 1022158